Dalzell, IL

5:50 PM CDT on September 28, 2016 (GMT -0500)
Illinois Valley Regional-Duncan

Weather History for KVYS - November, 2010

Change the Weather History Date:

Monday, November 15, 2010

  Actual Average Record
Temperature  
Mean Temperature 43 °F -  
Max Temperature 52 °F 47 °F 72 °F (1990)
Min Temperature 34 °F 30 °F 13 °F (1976)
Degree Days  
Heating Degree Days 22    
Moisture  
Dew Point 36 °F    
Average Humidity 78    
Maximum Humidity 94    
Minimum Humidity 59    
Precipitation  
Precipitation 0.00 in - - ()
Sea Level Pressure  
Sea Level Pressure 29.85 in    
Wind  
Wind Speed 6 mph (South)    
Max Wind Speed 16 mph    
Max Gust Speed -    
Visibility 9 miles    
Events      
Averages and records for this station are not official NWS values.
T = Trace of Precipitation, MM = Missing Value Source: NWS Daily Summary

Daily Weather History Graph

Daily Weather History Graph

Search for Another Location

Airport or City:

Trip Planner

Search our weather history database for the weather conditions in past years. The results will help you decide how hot, cold, wet, or windy it might be!

Date:

Astronomy

Nov. 15, 2010 Rise Set
Actual Time 6:44 AM CST 4:37 PM CST
Civil Twilight 6:15 AM CST 5:06 PM CST
Nautical Twilight 5:41 AM CST 5:40 PM CST
Astronomical Twilight 5:09 AM CST 6:12 PM CST
Moon 1:23 PM CST (11/15) 12:46 AM CST (11/15)
Length of Visible Light 10h 51m
Length of Day
9h 52m
Waxing Gibbous, 69% of the Moon is Illuminated
Nov 15
Waxing Gibbous
Nov 21
Full
Nov 28
Last Quarter
Dec 5
New
Dec 13
First Quarter

Hourly Weather History & Observations

Time (CST) Temp. Windchill Dew Point Humidity Pressure Visibility Wind Dir Wind Speed Gust Speed Precip Events Conditions
12:01 AM 40.5 °F 37.3 °F 36.7 °F 86% 29.88 in 10.0 mi SSE 4.6 mph - N/A   Overcast
12:21 AM 40.3 °F 37.1 °F 36.5 °F 86% 29.87 in 10.0 mi SE 4.6 mph - N/A   Overcast
12:41 AM 39.7 °F 34.9 °F 36.1 °F 87% 29.87 in 10.0 mi SE 6.9 mph - N/A   Scattered Clouds
1:01 AM 38.7 °F 33.6 °F 35.8 °F 89% 29.87 in 10.0 mi SE 6.9 mph - N/A   Clear
1:21 AM 37.9 °F 34.4 °F 35.2 °F 90% 29.86 in 10.0 mi SE 4.6 mph - N/A   Scattered Clouds
1:41 AM 37.8 °F 34.2 °F 35.1 °F 90% 29.86 in 7.0 mi SE 4.6 mph - N/A   Mostly Cloudy
2:01 AM 37.4 °F 33.8 °F 35.6 °F 93% 29.86 in 7.0 mi SSE 4.6 mph - N/A   Mostly Cloudy
2:21 AM 36.5 °F 31.8 °F 34.2 °F 91% 29.86 in 7.0 mi SSE 5.8 mph - N/A   Scattered Clouds
2:41 AM 36.5 °F 31.0 °F 33.8 °F 90% 29.85 in 10.0 mi SSE 6.9 mph - N/A   Clear
3:01 AM 36.9 °F 33.1 °F 34.2 °F 90% 29.85 in 10.0 mi SE 4.6 mph - N/A   Clear
3:21 AM 36.5 °F - 34.0 °F 91% 29.85 in 7.0 mi Calm Calm - N/A   Clear
3:41 AM 35.8 °F - 33.6 °F 92% 29.84 in 5.0 mi Calm Calm - N/A   Clear
4:01 AM 35.1 °F 32.2 °F 33.1 °F 92% 29.84 in 4.0 mi SE 3.5 mph - N/A   Clear
4:21 AM 36.7 °F 34.1 °F 35.1 °F 94% 29.84 in 4.0 mi SSE 3.5 mph - N/A   Clear
4:41 AM 36.0 °F - 34.3 °F 94% 29.85 in 2.0 mi Calm Calm - N/A   Clear
5:01 AM 35.2 °F - 33.6 °F 94% 29.85 in 1.0 mi Calm Calm - N/A   Mist
5:21 AM 35.8 °F 31.9 °F 34.2 °F 94% 29.85 in 1.2 mi South 4.6 mph - N/A   Mist
5:41 AM 36.5 °F 32.7 °F 34.9 °F 94% 29.85 in 7.0 mi South 4.6 mph - N/A   Clear
6:01 AM 34.9 °F 28.3 °F 33.1 °F 93% 29.85 in 10.0 mi South 8.1 mph - N/A   Mostly Cloudy
6:21 AM 34.7 °F 29.6 °F 32.0 °F 90% 29.85 in 10.0 mi South 5.8 mph - N/A   Mostly Cloudy
6:41 AM 34.3 °F 28.4 °F 31.5 °F 89% 29.85 in 10.0 mi SSW 6.9 mph - N/A   Scattered Clouds
7:01 AM 34.9 °F 29.9 °F 31.1 °F 86% 29.85 in 10.0 mi South 5.8 mph - N/A   Clear
7:21 AM 34.9 °F 29.9 °F 31.5 °F 87% 29.86 in 10.0 mi South 5.8 mph - N/A   Clear
7:41 AM 35.2 °F 29.5 °F 31.8 °F 87% 29.86 in 10.0 mi South 6.9 mph - N/A   Clear
8:01 AM 36.9 °F 31.4 °F 32.5 °F 84% 29.87 in 10.0 mi South 6.9 mph - N/A   Clear
8:21 AM 39.0 °F 34.0 °F 33.4 °F 80% 29.87 in 10.0 mi South 6.9 mph - N/A   Clear
8:41 AM 40.6 °F 36.0 °F 33.4 °F 75% 29.88 in 10.0 mi South 6.9 mph - N/A   Clear
9:01 AM 41.2 °F 34.5 °F 34.0 °F 76% 29.88 in 10.0 mi South 11.5 mph - N/A   Clear
9:21 AM 41.9 °F 35.9 °F 34.5 °F 75% 29.89 in 10.0 mi South 10.4 mph - N/A   Mostly Cloudy
9:41 AM 43.5 °F 37.9 °F 36.3 °F 76% 29.89 in 10.0 mi South 10.4 mph - N/A   Overcast
10:01 AM 44.2 °F 39.2 °F 36.5 °F 74% 29.89 in 10.0 mi SSW 9.2 mph - N/A   Overcast
10:21 AM 45.0 °F 40.1 °F 37.6 °F 75% 29.89 in 10.0 mi South 9.2 mph - N/A   Overcast
10:41 AM 45.7 °F 41.0 °F 37.4 °F 73% 29.88 in 10.0 mi SSW 9.2 mph - N/A   Overcast
11:01 AM 45.7 °F 40.6 °F 37.8 °F 74% 29.88 in 10.0 mi SSW 10.4 mph - N/A   Light Drizzle
11:21 AM 46.4 °F 41.9 °F 38.5 °F 74% 29.87 in 10.0 mi SSW 9.2 mph - N/A   Mostly Cloudy
11:41 AM 47.1 °F - 38.3 °F 71% 29.86 in 10.0 mi SSW 9.2 mph - N/A   Mostly Cloudy
12:01 PM 48.7 °F - 39.4 °F 70% 29.85 in 10.0 mi SSW 13.8 mph - N/A   Scattered Clouds
12:21 PM 49.1 °F - 39.9 °F 71% 29.85 in 10.0 mi South 13.8 mph - N/A   Scattered Clouds
12:41 PM 50.2 °F - 39.4 °F 66% 29.85 in 10.0 mi South 12.7 mph - N/A   Mostly Cloudy
1:01 PM 49.6 °F - 39.7 °F 69% 29.84 in 10.0 mi South 16.1 mph - N/A   Mostly Cloudy
1:21 PM 50.0 °F - 39.4 °F 67% 29.83 in 10.0 mi South 12.7 mph - N/A   Mostly Cloudy
1:41 PM 51.1 °F - 39.0 °F 63% 29.83 in 10.0 mi South 11.5 mph - N/A   Mostly Cloudy
2:01 PM 52.0 °F - 39.9 °F 63% 29.83 in 10.0 mi South 12.7 mph - N/A   Scattered Clouds
2:21 PM 51.8 °F - 39.4 °F 63% 29.83 in 10.0 mi South 10.4 mph - N/A   Clear
2:41 PM 52.7 °F - 39.9 °F 62% 29.83 in 10.0 mi SSW 9.2 mph - N/A   Clear
3:01 PM 52.2 °F - 38.5 °F 60% 29.83 in 10.0 mi SW 10.4 mph - N/A   Scattered Clouds
3:21 PM 52.0 °F - 39.0 °F 61% 29.83 in 10.0 mi SSW 8.1 mph - N/A   Scattered Clouds
3:41 PM 51.8 °F - 37.9 °F 59% 29.83 in 10.0 mi SSW 8.1 mph - N/A   Scattered Clouds
4:01 PM 49.6 °F - 38.3 °F 65% 29.83 in 10.0 mi SSW 8.1 mph - N/A   Scattered Clouds
4:21 PM 49.6 °F - 37.6 °F 63% 29.83 in 10.0 mi SW 6.9 mph - N/A   Mostly Cloudy
4:41 PM 48.9 °F - 37.4 °F 64% 29.84 in 10.0 mi SSW 4.6 mph - N/A   Mostly Cloudy
5:01 PM 50.0 °F - 37.4 °F 62% 29.84 in 10.0 mi SSE 5.8 mph - N/A   Overcast
5:21 PM 49.3 °F - 37.4 °F 64% 29.84 in 10.0 mi SSE 5.8 mph - N/A   Overcast
5:41 PM 49.3 °F - 37.4 °F 64% 29.84 in 10.0 mi SE 6.9 mph - N/A   Scattered Clouds
6:01 PM 48.4 °F - 37.6 °F 66% 29.84 in 10.0 mi SSE 6.9 mph - N/A   Scattered Clouds
6:21 PM 46.4 °F 42.9 °F 37.4 °F 71% 29.84 in 10.0 mi SSE 6.9 mph - N/A   Scattered Clouds
6:41 PM 46.6 °F - 37.6 °F 71% 29.84 in 10.0 mi SE 8.1 mph - N/A   Scattered Clouds
7:01 PM 45.9 °F 41.7 °F 37.4 °F 72% 29.83 in 10.0 mi SSE 8.1 mph - N/A   Clear
7:21 PM 45.7 °F 41.0 °F 36.9 °F 71% 29.83 in 10.0 mi SE 9.2 mph - N/A   Clear
7:41 PM 45.0 °F 40.1 °F 36.5 °F 72% 29.83 in 10.0 mi SSE 9.2 mph - N/A   Scattered Clouds
8:01 PM 45.9 °F 41.7 °F 36.7 °F 70% 29.83 in 10.0 mi SSE 8.1 mph - N/A   Mostly Cloudy
8:21 PM 44.2 °F 39.7 °F 36.3 °F 74% 29.83 in 10.0 mi SSE 8.1 mph - N/A   Mostly Cloudy
8:41 PM 45.0 °F 40.6 °F 36.5 °F 72% 29.83 in 10.0 mi SSE 8.1 mph - N/A   Overcast
9:01 PM 44.2 °F 38.8 °F 36.3 °F 74% 29.83 in 10.0 mi SSE 10.4 mph - N/A   Mostly Cloudy
9:21 PM 44.4 °F 39.0 °F 36.0 °F 72% 29.84 in 10.0 mi SSE 10.4 mph - N/A   Overcast
9:41 PM 45.1 °F 39.5 °F 34.7 °F 67% 29.83 in 10.0 mi South 11.5 mph 21.9 mph N/A   Scattered Clouds
10:01 PM 42.3 °F 36.8 °F 34.7 °F 75% 29.83 in 10.0 mi South 9.2 mph - N/A   Clear
10:21 PM 42.4 °F 36.5 °F 34.7 °F 74% 29.83 in 10.0 mi South 10.4 mph - N/A   Mostly Cloudy
10:41 PM 42.1 °F 35.2 °F 33.8 °F 72% 29.83 in 10.0 mi South 12.7 mph - N/A   Mostly Cloudy
11:01 PM 41.4 °F 34.7 °F 32.9 °F 72% 29.83 in 10.0 mi South 11.5 mph - N/A   Scattered Clouds
11:21 PM 41.4 °F 35.2 °F 32.7 °F 71% 29.83 in 10.0 mi South 10.4 mph - N/A   Clear
11:41 PM 40.1 °F 32.7 °F 32.7 °F 75% 29.83 in 10.0 mi South 12.7 mph - N/A   Scattered Clouds